Regional Weather Roundup
Issued by NWS

Home | Current Version | Previous Version | Text Only | Print | Product List | Glossary On
Versions: 1 2 3 4 5 6 7 8 9 10 11 12 13 14 15 16 17 18 19 20 21 22 23 24 25 26 27
000
ASUS44 KBMX 200010
RWRAL

ALABAMA REGIONAL WEATHER ROUNDUP
NATIONAL WEATHER SERVICE BIRMINGHAM AL
600 PM CST SUN NOV 19 2017

NOTE: "FAIR" INDICATES FEW OR NO CLOUDS BELOW 12,000 FEET
WITH NO SIGNIFICANT WEATHER AND/OR OBSTRUCTIONS TO VISIBILITY.

THE REMARK "TC" DENOTES TEMPERATURE IN DEGREES CELSIUS.

ALZ001>011-014-016>018-020-200100-
NORTH ALABAMA

CITY           SKY/WX    TMP DP  RH WIND       PRES   REMARKS
MUSCLE SHOALS  CLEAR     44  26  49 NW5       30.20R
6HR MIN TEMP:  44; 6HR MAX TEMP:  52;

HUNTSVILLE     CLEAR     42  27  55 NW6       30.18R
6HR MIN TEMP:  42; 6HR MAX TEMP:  52;

DECATUR        CLEAR     39  29  67 NW5       30.19R
6HR MIN TEMP:  38; 6HR MAX TEMP:  51;

HALEYVILLE     FAIR      38  31  76 CALM      30.21R
6HR MIN TEMP:  38; 6HR MAX TEMP:  49;

GADSDEN        CLEAR     44  32  62 NW6       30.16R
6HR MIN TEMP:  43; 6HR MAX TEMP:  53; 6HR PCP:  0.01;

$$

ALZ012-013-022-023-030>036-040>044-200100-
WEST CENTRAL ALABAMA

CITY           SKY/WX    TMP DP  RH WIND       PRES   REMARKS
TUSCALOOSA     CLEAR     49  32  52 N7        30.18R
6HR MIN TEMP:  49; 6HR MAX TEMP:  57; 6HR PCP: TRACE;

DEMOPOLIS        N/A     41  35  78 CALM      30.18R
6HR MIN TEMP:  42; 6HR MAX TEMP:  56;

$$

ALZ015-024>026-033>036-041>044-200100-
CENTRAL ALABAMA

CITY           SKY/WX    TMP DP  RH WIND       PRES   REMARKS
BIRMINGHAM     CLEAR     43  29  57 N7        30.18R
6HR MIN TEMP:  43; 6HR MAX TEMP:  55;

MONTGOMERY     CLEAR     48  32  53 NW7       30.14R
6HR MIN TEMP:  48; 6HR MAX TEMP:  59;

SHELBY CO ARPT CLEAR     47  30  51 NW3       30.15R
6HR MIN TEMP:  47; 6HR MAX TEMP:  56;

MAXWELL AFB    CLEAR     49  34  56 NW7       30.12R
6HR MIN TEMP:  49; 6HR MAX TEMP:  59;

GREENVILLE     FAIR      50  33  52 NW8       30.12R
6HR MIN TEMP:  50; 6HR MAX TEMP:  59;

SELMA          FAIR      45  34  65 NW7       30.14R
PRATTVILLE     FAIR      47  34  60 NW3       30.13R
6HR MIN TEMP:  47; 6HR MAX TEMP:  57;

BESSEMER       FAIR      45  29  53 NW6       30.17R
6HR MIN TEMP:  45; 6HR MAX TEMP:  54;

TALLADEGA      FAIR      46  31  56 NW7       30.16R
6HR MIN TEMP:  46; 6HR MAX TEMP:  54;

PELL CITY      CLEAR     39  36  87 CALM      30.17R
MARION         FAIR      46  32  58 NW7       30.15R
6HR MIN TEMP:  46; 6HR MAX TEMP:  55;

SYLACAUGA      FAIR      47  32  55 N3        30.15R
6HR MIN TEMP:  47; 6HR MAX TEMP:  56;

$$

ALZ019-021-028-029-037-038-045>048-200100-
EAST CENTRAL ALABAMA

CITY           SKY/WX    TMP DP  RH WIND       PRES   REMARKS
ANNISTON       CLEAR     47  32  56 W7        30.15R
6HR MIN TEMP:  47; 6HR MAX TEMP:  54;

ALEXANDER CITY CLEAR     46  33  60 NW6       30.13R
6HR MIN TEMP:  46; 6HR MAX TEMP:  56;

AUBURN         CLEAR     47  34  60 NW8       30.11R
6HR MIN TEMP:  47; 6HR MAX TEMP:  57;

$$

ALZ051>064-200100-
SOUTHWEST ALABAMA

CITY           SKY/WX    TMP DP  RH WIND       PRES   REMARKS
MOBILE         CLEAR     51  36  56 NW5       30.15R
6HR MIN TEMP:  51; 6HR MAX TEMP:  62;

BROOKLEY FIELD CLEAR     52  38  58 NW7       30.15R
6HR MIN TEMP:  52; 6HR MAX TEMP:  64;

EVERGREEN      CLEAR     48  36  63 N3        30.13R
6HR MIN TEMP:  48; 6HR MAX TEMP:  59;

$$

ALZ049-050-065>069-200100-
SOUTHEAST ALABAMA

CITY           SKY/WX    TMP DP  RH WIND       PRES   REMARKS
DOTHAN         CLEAR     51  37  58 NW8       30.11R
6HR MIN TEMP:  51; 6HR MAX TEMP:  63;

OZARK          CLEAR     50  36  58 NW7       30.09R
6HR MIN TEMP:  50; 6HR MAX TEMP:  62;

TROY           CLEAR     47  37  68 NW5       30.12R
6HR MIN TEMP:  46; 6HR MAX TEMP:  59;

EUFAULA        FAIR      52  35  52 NW5       30.08R
6HR MIN TEMP:  50; 6HR MAX TEMP:  63;

$$




USA.gov is the U.S. government's official web portal to all federal, state and local government web resources and services.